Eyob Ghebrehiwet Faniel

G.S. FIAMME ORO PADOVA
26-11-1992


Informazioni sul tesseramento aggiornate al 2018


Condividi con
Seguici su:


È nato ad Asmara (Eritrea) il 26 novembre 1992, 1.74x53kg
Società: Fiamme Oro Padova
Allenatore: Ruggero Pertile
Presenze in Nazionale: 2

Eyob Faniel è nato in Eritrea, ma vive in Italia dal febbraio 2004 quando insieme alla famiglia ha raggiunto il papà che si era trasferito nel ’98. Ha giocato a calcio, mentre a portarlo sui campi di atletica è stato Vittorio Fasolo e poi è cresciuto con il tecnico Marco Maddalon, seguendo anche i consigli di Giancarlo Chittolini. Per un periodo ha lavorato come manutentore in piscina e ha ottenuto la cittadinanza italiana nell’ottobre 2015. Dalla seconda parte del 2016 viene allenato da Ruggero Pertile, uno dei migliori maratoneti azzurri di sempre. Risiede a Bassano del Grappa (Vicenza), dopo aver abitato a Cassola, e nell’ottobre 2016 è diventato papà della piccola Wintana. Nel 2017 ha fatto il debutto in azzurro nella Coppa Europa dei 10.000 a Minsk e poi ha vinto la maratona di Venezia in 2h12:16. Nel giugno 2018 è entrato nelle Fiamme Oro, proveniente dal Venicemarathon Club.

Curriculum (10.000m): Euroch: 2017 (11, 2T); H Mar WCh: 2018 (37).

300 piani

Anno Data Tipo Cr. Cat. Piazz. Prestaz. Vento Città  
201010/04PEJM2 se- 8 39.55Conegliano
 

800 metri

Anno Data Tipo Cr. Cat. Piazz. Prestaz. Vento Città  
201201/09PEPM6 se- 2 2:00.95Brugnera
200929/09PEAM2 se- 2 2:01.75Fidenza
200917/07PMAM2 se- 1 2:04.1Belluno
200925/07PEAM3 se- 3 2:04.58Pergine Valsugana
 

1000 metri

Anno Data Tipo Cr. Cat. Piazz. Prestaz. Vento Città  
201229/09PEPM4 se- 1 2:30.55Mestre
201025/09PEJM6 se- 1 2:36.34Mestre
200917/10PEAM5 se- 1 2:42.82Mestre San Giuliano
 

1500 metri

Anno Data Tipo Cr. Cat. Piazz. Prestaz. Vento Città  
201427/09PEPM5 su- 1 3:51.26Orvieto
201527/06PESM1 se- 2 3:51.54Gorizia
201428/06PEPM1 su- 1 3:52.25Gorizia
201420/07PEPM8 se- 1 3:53.27Rovereto
201526/09PESM6 su- 1 3:53.37Jesolo
201323/07PEPM9 se- 1 3:53.95Trento
201321/09PEPM1 se- 1 3:54.41Chiari
201328/09PEPM5 su- 1 3:55.22Sulmona
201215/09PEPM1 se- 1 3:55.86Spilimbergo
201222/09PEPM9 su- 1 3:57.57Campi Bisenzio
201230/05PEPM1 su- 2 3:58.18Treviso
201314/09PEPM3 su- 1 3:59.68Gorizia
201414/06PEPM4 se- 1 3:59.94Marcon
201312/07PEPM1 se- 2 4:02.58Bovolone
201109/06PEJM9 se- 1 4:02.76Modena
201311/05PEPM4 su- 1 4:04.92Casarsa
201018/09PEJM1 su- 1 4:10.37Vicenza
201012/06PEJM6 se- 2 4:10.56Padova
201002/06PEJM4 su- 1 4:13.25Verona
201015/05PEJM7 se- 2 4:13.30Marcon
200929/08PEAM9 se- 1 4:14.25Curno
200916/05PEAM13 se- 2 4:17.13Vicenza
200920/06PEAM9 su- 1 4:20.35Abano Terme
200923/05PEAM6 se- 1 4:21.20Rosa
200902/05PEAM7 su- 1 4:26.65Mestre
 

3000 metri

Anno Data Tipo Cr. Cat. Piazz. Prestaz. Vento Città  
201517/01IESM1 se- 1 8:14.18Padova
201429/07PEPM1 se- 1 8:21.30Trento
201102/10PEJM1 se- 2 8:23.15Cremona
201205/05PEPM1 se- 1 8:28.98Scorze
201306/08PEPM5 se- 6 8:29.25Trento
201406/04PEPM4 se- 1 8:30.44Marcon
201304/05PEPM1 su- 1 8:37.60Scorze
201128/05PEJM5 se- 1 8:42.81Noale
201005/06PEJM4 se- 2 9:02.11Bussolengo
201007/07PEJM6 se- 1 9:03.58Montebelluna
200906/09PEAM8 se- 1 9:06.06Reggio Emilia
200920/09PEAM3 su- 1 9:08.93Mogliano Veneto
201001/05PEJM6 su- 1 9:09.39Voltabarozzo
200921/06PEAM6 su- 1 9:23.84Abano Terme
 

5000 metri

Anno Data Tipo Cr. Cat. Piazz. Prestaz. Vento Città  
201701/06PESM2 su- 1 14:03.85Ponzano Veneto
201517/06PESM2 su- 1 14:06.65Gorizia
201527/09PESM4 su- 1 14:12.10Jesolo
201503/07PESM3 se- 1 14:15.22Ponzano Veneto
201507/06PESM1 su- 1 14:16.10Rovigo
201625/06PESM7 su- 1 14:19.69Rieti
201619/07PESM2 su- 1 14:29.30Trento
201212/05PEPM8 se- 1 14:35.54Codroipo
201406/09PEPM6 su- 1 14:36.02Brugnera
201307/09PEPM6 su- 1 14:39.67Brugnera
201330/07PEPM4 se- 1 14:45.98Trento
201407/06PEPM7 su- 1 14:51.67Torino
201312/05PEPM4 su- 1 14:58.63Casarsa
201118/09PEJM1 su- 1 15:01.28Bassano Del Grappa
201421/06PEPM1 su- 1 15:03.02Feltre
201429/06PEPM1 su- 1 15:03.36Gorizia
201322/06PEPM5 su- 1 15:13.99Feltre
201315/06PEPM8 su- 1 15:29.67Rieti
201117/06PEJM13 su- 1 15:36.86Bressanone
201017/09PEJM7 su- 1 15:37.88Marcon
201028/09PEJM1 se- 1 15:42.10Fidenza
201101/05PEJM2 su- 1 15:51.54Montebelluna
201016/05PEJM6 se- 2 16:02.50Marcon
200905/07PEAM5 su- 1 16:43.80Bovolone
 

10000 metri

Anno Data Tipo Cr. Cat. Piazz. Prestaz. Vento Città  
201713/05PESM3 se- 1 29:04.55Roma
201517/05PESM3 su- 1 29:27.86Isernia
201526/04PESM1 se- 2 29:48.67Rubiera
201710/06PESM12 se- 1 29:50.24Minsk
201117/04PEJM8 se- 1 33:11.57Treviso
 

Corsa strada Km 10

Anno Data Tipo Cr. Cat. Piazz. Prestaz. Vento Città  
201815/04SESM2 su- 1 28:44Torino
201709/09SESM5 su- 1 28:53 Dalmine
201718/06SMSM3 su- 1 29:35Telese
201522/03SMSM3 su- 1 30:00Vicenza
201730/04SMSM1 su- 1 30:59Chia
201503/05SMSM4 su- 1 38:52Chia
 

MARATONINA A

Anno Data Tipo Cr. Cat. Piazz. Prestaz. Vento Città  
201807/04SESM10 su- 1 1h02:27Praga
201824/03SESM37 su- 1 1h02:37Valencia
201804/03SESM4 su- 1 1h02:49Parigi
201701/04SMSM14 se- 1 1h03:09Praga
201717/09SESM1 su- 1 1h03:26Roma
201719/03SMSM9 su- 1 1h04:04Milano
201830/06PESM2 su- 1 1h04:07Tarragona
201504/10SMSM5 su- 1 1h04:14Telese Terme
201606/03SMSM8 su- 1 1h04:35Fucecchio
201812/01SMSM10 se- 1 1h04:41Doha
201428/12SMPM1 su- 1 1h04:43Cittadella
201515/02SMSM5 su- 1 1h04:46Verona
201618/12SMSM1 su- 1 1h04:52Cittadella
201804/02SMSM1 su- 1 1h05:18Portofino
201611/06SMSM1 su- 1 1h06:34Lignano Sabbiadoro
201710/06SMSM1 su- 1 1h06:34Lignano Sabbiadoro
201515/03SMSM1 su- 1 1h07:12Brugnera
201416/02SMPM48 su- 1 1h07:49Verona
201606/08SMSM1 su- 1 1h08:45Scorze
 

MARATONINA B

Anno Data Tipo Cr. Cat. Piazz. Prestaz. Vento Città  
201523/05SMSM1 su- 1 1h05:34Jesolo
201628/05SMSM5 su- 1 1h06:18Jesolo
201618/09SMSM6 su- 1 1h06:52Udine
 

MARATONA A

Anno Data Tipo Cr. Cat. Piazz. Prestaz. Vento Città  
201627/11SMSM3 se- 1 2h15:39Firenze
201719/11SMSM4 su- 1 2h20:20Verona
 

Maratona B

Anno Data Tipo Cr. Cat. Piazz. Prestaz. Vento Città  
201722/10SMSM1 su- 1 2h12:16Venezia
 

3000 siepi H91

Anno Data Tipo Cr. Cat. Piazz. Prestaz. Vento Città  
201012/09PEJM3 su- 1 9:47.79Vedelago
201118/06PEJM13 su- 1 9:53.60Bressanone
201114/05PEJM8 su- 1 9:55.38Marcon
 

Attenzione: le schede-atleti sono composte automaticamente sulla base dei dati inseriti all'interno degli archivi nazionali aggiornati dal 2005 al 15-07-2018. Se un risultato non compare nelle graduatorie, quindi, è segno che lo stesso, con ogni probabilità, non è stato ancora inserito. Il processo di inserimento è di competenza dei Comitati Regionali sul cui territorio ha avuto luogo la manifestazione: eventuali segnalazioni per errori od omissioni, vanno dunque indirizzate agli stessi (potete utilizzare l'elenco con relativi contatti). Considerato però che solo le principali manifestazioni nazionali sono oggetto di inserimenti "in diretta" (sul posto di gara), mentre le altre, incluse le internazionali in programma all'estero, vengono inserite in tempi successivi, è opportuno attendere un ragionevole lasso di tempo prima di procedere ad una segnalazione.

Stickers


Non ventosi

GaraTipoPrestazioneVentoAnnoCittà
300 pianiPista 39.552010Conegliano
800 metriPista 2:00.952012Brugnera
1000 metriPista 2:30.552012Mestre
1500 metriPista 3:51.262014Orvieto
3000 metriIndoor 8:14.182015Padova
3000 metriPista 8:21.302014Trento
5000 metriPista 14:03.852017Ponzano Veneto
10000 metriPista 29:04.552017Roma
Corsa strada Km 10Strada 28:442018Torino
MARATONINA AStrada 1h02:272018Praga
MARATONINA APista 1h04:072018Tarragona
MARATONINA BStrada 1h05:342015Jesolo
MARATONA AStrada 2h15:392016Firenze
Maratona BStrada 2h12:162017Venezia
3000 siepi H91Pista 9:47.792010Vedelago

30 Marzo 2017
Meucci e Faniel, mezza maratona a Praga

Il 1° aprile sui 21,097km della capitale della Repubblica Ceca saranno in gara il campione europeo di maratona e il 24enne emergente della Venicemarathon Club.  Al via anche l'azzurro della corsa in montagna Chevrier. 

01 Giugno 2017
Ponzano: Faniel si migliora nei 5000

L'azzurro, in partenza per la Coppa Europa dei 10.000 metri, centra il PB sulla mezza distanza, 14:03.85. Nei 1500 affermazioni di Razine e Mattagliano con l'allieva Battocletti al personale.

17 Settembre 2017
La Via Pacis è azzurra con Faniel e Brogiato

I due azzurri si aggiudicano la prima edizione della mezza maratona con partenza e arrivo da San Pietro. Al via anche i marciatori Palmisano e De Luca. 

18 Ottobre 2017
Faniel affronta la sfida della Venicemarathon

Domenica 22 ottobre, l'azzurro sarà al via della suggestiva maratona della laguna. Compresa la 10k, sono attesi oltre 13.000 runners. L'arrivo in Riva dei Sette Martiri. Diretta TV su RaiSport.

22 Ottobre 2017
Venicemarathon: Faniel vince e si migliora

L’azzurro conquista la maratona di Venezia con il record personale di 2h12:16. Imprevisto poco dopo metà gara, per un errore di percorso nel gruppo di testa. Al femminile prevale l’etiope Utura in 2h29:04.

10 Gennaio 2018
Doha: Faniel alla mezza maratona

L’azzurro in gara, venerdì 12 gennaio, nella capitale del Qatar sui 21,097 chilometri che vedranno in azione Mo Farah

12 Gennaio 2018
Faniel decimo alla mezza di Doha

Sui 21,097 chilometri nella capitale del Qatar, il 25enne veneto taglia il traguardo in 1h04:41

04 Marzo 2018
Parigi: progressi per Faniel sulla mezza

L'azzurro nella capitale francese centra il quarto posto e il personale in 1h02:49

24 Marzo 2018
Valencia: Gudeta record, Faniel migliore azzurro

L'etiope conquista titolo e record mondiale "only women" di mezza maratona in 1h06:11. Faniel 37esimo in 1h02:37, primato personale come Epis e Brogiato.

07 Aprile 2018
Mezza Praga: Faniel terzo PB in 34 giorni

L’azzurro firma un altro record personale sui 21,097 chilometri con il decimo posto in 1h02:27 nella capitale della Repubblica Ceca

30 Giugno 2018
Giochi Mediterraneo: arriva l'oro della Dossena

Vittoria azzurra a Tarragona nella mezza maratona femminile con la lombarda davanti a tutte. Tra gli uomini Faniel argento in volata, quarto Meucci.

AnnoTipo mov.CategoriaSocietà
2018TrasferimentoSeniores MaschileG.S. FIAMME ORO PADOVA
2018RinnovoSeniores MaschileVENICEMARATHON CLUB
2017RinnovoSeniores MaschileVENICEMARATHON CLUB
2016TrasferimentoSeniores MaschileVENICEMARATHON CLUB
2015RinnovoSeniores MaschileATLETICA BRUGNERA FRIULINTAGLI
2014RinnovoPromesse MaschileATLETICA BRUGNERA FRIULINTAGLI
2013RinnovoPromesse MaschileATLETICA BRUGNERA FRIULINTAGLI
2012TrasferimentoPromesse MaschileATLETICA BRUGNERA FRIULINTAGLI
2011RinnovoJuniores MaschileG.A. BASSANO
2010RinnovoJuniores MaschileG.A. BASSANO
2009NuovoAllieviG.A. BASSANO
AnnoInizioFineTipoDenominazione
201802-0702-08RadunoMaratona e Mezzofondo - St. Moritz (SUI)
201827-0630-06NazionaleGiochi del Mediterraneo - Tarragona (ESP)
201830-0501-07RadunoMaratona - Livigno (SO)
201824-0324-03NazionaleCampionati Mondiali Mezza Maratona - Valencia (SPA
201802-0202-03RadunoMaratona - Asmara (ERI)
201706-1118-10RadunoMezzofondo e Maratona - Tirrenia
201710-0610-06NazionaleCoppa Europa m.10000 - Minsk (BLR)
201605-0414-04RadunoMezzofondo - Modena
201613-0123-01RadunoMezzofondo/Maratona
201501-1217-12RadunoMezzofondo - Tirrenia
201510-1118-11RadunoMezzofondo - Tirrenia